COSMOS 970 DEB, 64970

Orbit data source: Space-Track

COSMOS 970 DEB, 64970 is space debris in LEO originally from a launch on Wed, 21 Dec 1977 UTC launched from the Tyuratam Missile And Space Complex (TTMTR). Debris objects in space refer to the collection of defunct objects orbiting the Earth. Examples of debris include non-operational satellites, rocket bodies, and fragments generated from explosions, collisions, or faulty payload assembly.

Loading next visibility...
Identifier
64970, 1977-121CF
Orbit
LEO
Country
Flag of CISCIS
Related business
Manufacturer
Unknown
Mission
Spacecraft
Bus & Motor
Unknown
Mass
Unknown
Launch date (UTC)
1977-12-21 (48 years ago)
Launch vehicle
Unknown
Launch site
Tyuratam Missile And Space Complex (TTMTR)
Object type
Payload
Rocket body
Debris
Shape & HBR
Unknown shape, 0.1 m
Radar Cross Section
Small (<0.1 m²)

Expand to show TLE details & history
Last TLE update: 11 hours ago

TLE from 11 hours ago
0 COSMOS 970 DEB
1 64970U 77121CF  26171.38932569  .00000150  00000-0  45150-3 0  9990
2 64970  64.8356 205.0316 0127906 280.9417  77.7247 13.32091203611144
Epoch: 2026-06-20T09:20Z
TLE epoch observation values (Epoch: 2026-06-20T09:20:37.739Z)
Latitude
-0.00003°
Longitude
156.26969°
Altitude
1,121.489 km
Speed
7.302 km/s
True Right ascension
13h 40m 07s
True Declination
0° 00' 00"
Sunlit
Object was in daylight at epoch
Visualization orbit readout
Latitude
Unknown
Longitude
Unknown
Altitude
Unknown
Speed
Unknown
Apparent Right ascension
Unknown
Apparent Declination
Unknown
Sunlit
N/A
Visualization observer readout
Local Sidereal Time
07:15:06
Azimuth
Unknown
Elevation
Unknown
Doppler factor
Unknown
Orbital elements
Apogee altitude
1,233.68 km
Perigee altitude
1,041.42 km
Semi-major axis
7,515.687 km
Eccentricity
0.01279
Inclination
64.8356°
RAAN
205.0316°
Arg. of periapsis
280.9417°
True anomaly
79.16162°
Mean anomaly
77.7247°
Eccentric anomaly
78.44269°
Mean motion
3.33112 °/min
Orbital period
108.07 mins
BSTAR
0.0004515
Loading maneuver chart data...
Computing Atmospheric mass density...
Loading historical data...
Loading historical data...
Loading historical data...
Loading historical data...
Loading historical data...
Loading historical data...
Loading historical data...

Documentation

Showing up to 5 results
|